User: anonymous   Login
Location: Unspecified
(0.0000°N, 0.0000°E)
Time: 10:51:06
(UTC+00:00)
Language:

Syncom 2 - Orbit

View from above orbital plane
View from above orbital plane
View from above satellite
View from above satellite

Ground track
Ground track

The orbit data is extracted from the following two-line orbital elements,

1   634U 63031A   19018.00293286 -.00000171  00000-0  00000+0 0  9994
2   634  34.8806 337.9266 0003637 139.8695  84.8406  1.00261632203208
Epoch (UTC): 18 January 2019 00:04:13
Eccentricity: 0.0003637
inclination: 34.8806°
perigee height: 35774 km
apogee height: 35804 km
right ascension of ascending node: 337.9266°
argument of perigee: 139.8695°
revolutions per day: 1.00261632
mean anomaly at epoch: 84.8406°
orbit number at epoch: 20320

The dashed part of the orbit path shows where the satellite is in the earth's shadow,  

DLR